sat.trackr.live / text

‹ back to catalog

IRIDIUM 134

NORAD 43075 · 2017-083F

PAYLOAD ACTIVE UNKNOWN

§ Identity

Operator
Country
US
Launch date
2017-12-23
Launch site
AFWTR
Launch vehicle
Mass (kg)
RCS (m²)

Purposes: comms

External: N2YO · Heavens-Above · Gunter

§ Orbital elements

Epoch: 2026-09-20T00:16:23.201760Z

Period
100.40 min
Inclination
86.3913°
Eccentricity
0.0002123
Mean motion
14.34217125 rev/d
Perigee alt
776.2 km
Apogee alt
779.2 km
Semi-major
7,155.8 km
B*
-1.6147e-5
RAAN
282.4246°
Arg perigee
90.0448°
Mean anomaly
270.0991°
Rev number
45,769

§ Raw data

IRIDIUM 1341 43075U 17083F   26263.01137965 -.00000025  00000+0 -16147-4 0  99902 43075  86.3913 282.4246 0002123  90.0448 270.0991 14.34217125457691

JSON: /api/v1/satellites/43075 · /tle

For live sub-satellite position, see the globe view (requires WebGL).

§ Visibility from observer

Set your observer location to see the next 7 days of passes ≥ 10°. The values pass through the URL so the page stays shareable.

No JS? Fill the form by hand. The geolocation button needs JavaScript.